Regional Weather Roundup
Issued by NWS

Home | Current Version | Previous Version | Graphics & Text | Print | Product List | Glossary On
Versions: 1 2 3 4 5 6 7 8 9 10 11 12 13 14 15 16 17 18 19 20 21 22 23 24 25 26 27 28 29 30 31 32 33 34 35 36 37 38 39 40 41 42 43 44 45 46 47 48 49 50
000
ASUS43 KLMK 300710
RWRKY
KENTUCKY REGIONAL WEATHER ROUNDUP
NATIONAL WEATHER SERVICE LOUISVILLE KY
300 AM EDT SAT JUL 30 2016

NOTE "FAIR" INDICATES FEW OR NO CLOUDS BELOW 12,000 FEET
WITH NO SIGNIFICANT WEATHER AND/OR OBSTRUCTIONS TO VISIBILITY.

KYZ001>023-026-027-061>063-070>075-300800-
WESTERN AND SOUTH CENTRAL KENTUCKY

CITY           SKY/WX    TMP DP  RH WIND       PRES   REMARKS
PADUCAH        CLOUDY    72  70  93 W8        29.94S FOG
HENDERSON      CLOUDY    72  70  94 CALM      29.92S
OWENSBORO      FOG       72  72 100 CALM      29.94S VSB<1/4
HOPKINSVILLE   PTCLDY    72  72 100 W3        29.94F
BOWLING GREEN  MOCLDY    74  71  91 CALM      29.94S
GLASGOW        PTCLDY    71  71 100 CALM      29.94S
$$

KYZ024-025-028>034-038-045-046-053-300800-
NORTH CENTRAL KENTUCKY

CITY           SKY/WX    TMP DP  RH WIND       PRES   REMARKS
LOUISVILLE/SDF MOCLDY    74  71  91 W6        29.91S
LOUISVILLE/LOU PTCLDY    74  71  91 SW5       29.92S
FORT KNOX      CLOUDY    69  69  97 W2        29.91F
$$

KYZ035>037-039>044-047>052-055>060-089>105-300800-
NORTHEAST KENTUCKY

CITY           SKY/WX    TMP DP  RH WIND       PRES   REMARKS
LEXINGTON      PTCLDY    71  69  93 S5        29.93F
COVINGTON      CLOUDY    70  69  97 SW3       29.91F
FRANKFORT      CLOUDY    71  67  87 CALM      29.92F
$$

KYZ054-064>069-076>088-106>120-300800-
SOUTHEAST KENTUCKY

CITY           SKY/WX    TMP DP  RH WIND       PRES   REMARKS
JACKSON        MOCLDY    69  68  96 CALM      29.97F
LONDON         PTCLDY    70  67  90 CALM      29.96F
SOMERSET       PTCLDY    70  70 100 CALM      29.95F
MIDDLESBORO    CLOUDY    68  68 100 CALM      29.99F
MONTICELLO     CLOUDY   N/A N/A N/A N8        29.97F
$$




USA.gov is the U.S. government's official web portal to all federal, state and local government web resources and services.